Location: Grassland Mountain Observatory
(35.7543°N, 82.8038°W)
Time: 07:49:07
(UTC-05:00)

Hubble Space Telescope - Visible Passes

Search period start: 06 December 2021 00:00
Search period end: 16 December 2021 00:00
Orbit: 534 x 538 km, 28.5° (Epoch: 05 December)

Date Brightness Start Highest point End Pass type
(mag) Time Alt. Az. Time Alt. Az. Time Alt. Az.
14 Dec 3.4 18:24:44 10° SSE 18:24:54 10° SSE 18:25:05 10° SSE visible
14 Dec 3.7 20:02:08 10° SW 20:02:38 12° SW 20:02:38 12° SW visible
15 Dec 3.2 18:11:53 10° S 18:13:37 12° SSE 18:15:21 10° SE visible
15 Dec 3.2 19:50:45 10° SW 19:52:08 17° SSW 19:52:08 17° SSW visible
